Waarnemingen

Advertentie
Mijn weer
Vinga, Zweden (2516): temperatuur & dauwpunt: 18.01.2018 06:00:00 - 24.01.2018 06:00:00 (CET)Vinga, Zweden (2516): windsnelheid & windstoten: 18.01.2018 06:00:00 - 24.01.2018 06:00:00 (CET)Vinga, Zweden (2516): windrichting: 18.01.2018 06:00:00 - 24.01.2018 06:00:00 (CET)Vinga, Zweden (2516): luchtdruk: 18.01.2018 06:00:00 - 24.01.2018 06:00:00 (CET)Vinga, Zweden (2516): zicht: 18.01.2018 06:00:00 - 24.01.2018 06:00:00 (CET)Vinga, Zweden (2516): neerslag: 18.01.2018 06:00:00 - 24.01.2018 06:00:00 (CET)
Datum & Tijd tt [°C] td [°C] ff [km/u] ff [kn] fx [km/u] fx [kn] dd ppp [hPa] vv [km] rr [mm]
24.01.2018 06:00:00 - - - - - - - - - -
24.01.2018 05:00:00 5,2 5,1 36 19 49 26 ZW 1001,2 5 0,0
24.01.2018 04:00:00 5,4 5,3 42 23 54 29 ZW 1000,4 6 0,0
24.01.2018 03:00:00 4,8 4,7 51 27 62 34 ZZW 1000,2 4,1 0,3
24.01.2018 02:00:00 4,7 4,6 51 28 62 33 ZZW 999,9 1,4 0,4
24.01.2018 01:00:00 4,3 4,2 54 29 76 41 Z 1000,7 2,4 0,3
24.01.2018 00:00:00 4,0 3,9 61 33 79 43 Z 1001,3 2,2 1,6
23.01.2018 23:00:00 3,8 3,5 67 36 85 46 Z 1002,4 2,1 1,0
23.01.2018 22:00:00 3,3 3,0 60 33 75 41 ZZO 1004,0 2,4 2,1
23.01.2018 21:00:00 2,9 2,8 61 33 73 40 ZZO 1005,8 2,1 0,4
23.01.2018 20:00:00 2,7 2,6 52 28 69 37 Z 1008,0 1,5 0,0
23.01.2018 19:00:00 2,5 2,2 55 30 73 40 Z 1009,4 1,7 0,0
23.01.2018 18:00:00 2,3 1,7 61 33 72 39 Z 1010,4 3,2 0,0
23.01.2018 17:00:00 2,1 1,4 58 31 70 38 Z 1011,7 3,5 0,0
23.01.2018 16:00:00 1,8 1,2 53 28 62 34 Z 1012,6 2,7 0,0
23.01.2018 15:00:00 1,8 0,8 50 27 61 33 Z 1014,0 4,7 0,0
23.01.2018 14:00:00 2,0 0,4 51 28 61 33 Z 1014,8 9 0,0
23.01.2018 13:00:00 1,9 -0,8 49 26 58 31 Z 1015,2 11 0,0
23.01.2018 12:00:00 1,9 -1,2 51 27 59 32 Z 1015,9 13 0,0
23.01.2018 11:00:00 2,1 -0,5 44 24 54 29 Z 1016,3 13 0,0
23.01.2018 10:00:00 2,2 -0,2 41 22 46 25 Z 1016,8 12 0,0
23.01.2018 09:00:00 2,2 0,3 39 21 48 26 Z 1017,0 7 0,0
23.01.2018 08:00:00 0,8 -0,8 37 20 45 24 ZZO 1016,9 8 0,0
23.01.2018 07:00:00 0,7 -1,2 30 16 38 20 ZO 1017,0 10 0,0
23.01.2018 06:00:00 0,6 -1,3 29 16 39 21 ZO 1016,7 10 0,0
23.01.2018 05:00:00 0,9 -1,0 29 16 35 19 ZO 1016,7 12 0,0
23.01.2018 04:00:00 1,0 -1,2 27 14 34 19 ZO 1016,7 13 0,0
23.01.2018 03:00:00 1,0 -1,2 29 16 37 20 ZO 1016,3 14 0,0
23.01.2018 02:00:00 0,9 -1,5 26 14 34 18 ZO 1016,0 14 0,0
23.01.2018 01:00:00 0,6 -1,6 19 11 24 13 ZO 1016,1 16 0,0
23.01.2018 00:00:00 0,6 -1,6 21 11 27 15 ZZO 1015,8 15 0,0
22.01.2018 23:00:00 0,6 -1,6 22 12 33 18 ZO 1015,1 17 0,0
22.01.2018 22:00:00 0,6 -1,5 25 14 33 18 OZO 1014,3 19 0,0
22.01.2018 21:00:00 0,4 -2,0 24 13 32 18 OZO 1014,0 21 0,0
22.01.2018 20:00:00 0,4 -2,1 26 14 32 18 OZO 1013,7 26 0,0
22.01.2018 19:00:00 0,3 -2,6 22 12 33 18 O 1013,4 34 0,0
22.01.2018 18:00:00 0,4 -2,6 22 12 29 16 O 1012,7 40 0,0
22.01.2018 17:00:00 0,4 -2,8 25 14 36 19 O 1012,2 38 0,0
22.01.2018 16:00:00 0,5 -2,5 24 13 34 18 OZO 1011,9 37 0,0
22.01.2018 15:00:00 0,6 -2,8 28 15 36 19 OZO 1011,6 31 0,0
22.01.2018 14:00:00 0,5 -2,5 28 15 35 19 OZO 1011,4 30 0,0
22.01.2018 13:00:00 0,6 -2,3 26 14 41 22 OZO 1011,5 33 0,0
22.01.2018 12:00:00 0,7 -2,2 34 18 42 23 ZO 1011,6 30 0,0
22.01.2018 11:00:00 0,4 -1,5 29 16 39 21 ZO 1011,7 21 0,0
22.01.2018 10:00:00 0,1 -1,5 29 16 41 22 OZO 1011,6 17 0,0
22.01.2018 09:00:00 0,0 -1,4 30 16 37 20 ZO 1011,6 17 0,0
22.01.2018 08:00:00 -0,2 -1,5 29 15 36 19 OZO 1011,6 14 0,0
22.01.2018 07:00:00 -0,3 -1,7 26 14 34 18 OZO 1011,7 25 0,0
22.01.2018 06:00:00 -0,5 -1,9 24 13 32 17 OZO 1012,1 33 0,0
22.01.2018 05:00:00 -0,2 -1,9 24 13 31 17 OZO 1012,6 41 0,0
22.01.2018 04:00:00 0,3 -1,9 23 12 34 18 ZO 1012,9 50 0,0
22.01.2018 03:00:00 0,9 -1,3 28 15 37 20 ZO 1013,4 50 0,0
22.01.2018 02:00:00 0,5 -0,6 29 16 38 20 ZO 1013,8 22 0,0
22.01.2018 01:00:00 0,7 -0,2 31 17 41 22 ZO 1014,1 13 0,0
22.01.2018 00:00:00 0,6 -0,3 27 15 33 18 ZO 1014,6 17 0,0
21.01.2018 23:00:00 0,8 -0,2 21 11 28 15 ZO 1015,2 21 0,0
21.01.2018 22:00:00 0,5 -0,5 21 11 26 14 ZO 1015,1 26 0,0
21.01.2018 21:00:00 0,4 -0,5 18 10 24 13 OZO 1015,4 28 0,0
21.01.2018 20:00:00 0,5 -0,5 19 10 22 12 ZO 1015,8 40 0,0
21.01.2018 19:00:00 0,7 -0,3 17 9 21 11 ZO 1016,0 28 0,0
21.01.2018 18:00:00 1,0 -0,5 13 7 18 10 ZZO 1016,0 34 0,0
21.01.2018 17:00:00 0,9 -0,7 11 6 14 8 ZO 1016,2 40 0,0
21.01.2018 16:00:00 0,8 -0,8 9 5 12 6 ZO 1016,1 50 0,0
21.01.2018 15:00:00 0,9 -0,9 7 4 12 6 O 1015,8 50 0,0
21.01.2018 14:00:00 0,6 -1,0 6 4 10 6 OZO 1015,5 50 0,0
21.01.2018 13:00:00 0,5 -1,1 6 4 14 8 OZO 1015,1 48 0,0
21.01.2018 12:00:00 0,4 -1,4 9 5 14 8 O 1014,6 50 0,0
21.01.2018 11:00:00 0,5 -1,3 10 6 14 8 O 1014,2 49 0,0
21.01.2018 10:00:00 0,6 -1,2 10 6 18 10 OZO 1013,4 50 0,0
21.01.2018 09:00:00 0,5 -0,9 13 7 18 10 O 1012,6 50 0,0
21.01.2018 08:00:00 0,6 -1,0 13 7 21 11 O 1011,9 45 0,0
21.01.2018 07:00:00 0,6 -0,9 11 6 17 9 O 1011,2 50 0,0
21.01.2018 06:00:00 0,5 -0,8 11 6 17 9 O 1010,5 50 0,0
21.01.2018 05:00:00 0,6 -0,9 11 6 18 10 O 1009,7 50 0,0
21.01.2018 04:00:00 0,7 -0,8 10 5 18 10 ONO 1009,0 50 0,0
21.01.2018 03:00:00 0,7 -0,9 12 7 20 11 ONO 1008,4 50 0,0
21.01.2018 02:00:00 0,6 -0,9 13 7 19 10 ONO 1007,4 50 0,0
21.01.2018 01:00:00 0,8 -0,5 14 8 22 12 O 1006,8 45 0,0
21.01.2018 00:00:00 0,7 -0,5 14 7 21 12 ONO 1006,1 50 0,0
20.01.2018 23:00:00 0,8 -0,4 16 8 21 11 O 1005,6 50 0,0
20.01.2018 22:00:00 0,9 -0,3 17 9 27 15 O 1005,1 50 0,0
20.01.2018 21:00:00 0,8 -0,2 19 11 26 14 OZO 1004,4 20 0,0
20.01.2018 20:00:00 0,8 -0,2 17 9 27 15 OZO 1004,0 44 0,0
20.01.2018 19:00:00 0,8 -0,2 22 12 29 15 OZO 1003,7 50 0,0
20.01.2018 18:00:00 0,9 0,2 22 12 29 16 OZO 1003,3 50 0,0
20.01.2018 17:00:00 1,0 0,6 22 12 31 17 OZO 1003,1 43 0,0
20.01.2018 16:00:00 0,6 0,5 24 13 30 16 OZO 1002,6 32 0,1
20.01.2018 15:00:00 0,6 0,5 24 13 31 17 OZO 1002,4 9 0,2
20.01.2018 14:00:00 0,4 0,3 24 13 36 20 OZO 1002,4 1,9 0,2
20.01.2018 13:00:00 0,4 0,3 28 15 35 19 ZO 1002,3 4,7 0,4
20.01.2018 12:00:00 0,4 0,3 29 16 36 20 ZO 1002,7 3,8 0,1
20.01.2018 11:00:00 0,1 0,0 29 16 37 20 OZO 1002,9 1,2 0,3
20.01.2018 10:00:00 0,5 0,2 29 16 40 22 ZO 1002,8 2,8 0,0
20.01.2018 09:00:00 0,5 0,4 30 16 42 23 ZO 1002,6 5 0,0
20.01.2018 08:00:00 0,2 0,1 31 17 41 22 OZO 1002,3 17 0,1
20.01.2018 07:00:00 0,0 -0,1 27 14 37 20 ZO 1002,3 4,0 0,1
20.01.2018 06:00:00 -0,1 -0,4 30 16 37 20 OZO 1002,4 1,1 0,4
20.01.2018 05:00:00 0,2 -0,7 31 17 39 21 OZO 1002,5 13 0,0
20.01.2018 04:00:00 0,3 -0,6 26 14 36 19 OZO 1002,9 19 0,0
20.01.2018 03:00:00 0,0 -1,0 27 15 37 20 OZO 1003,0 30 0,0
20.01.2018 02:00:00 0,2 -0,9 29 15 36 19 OZO 1003,1 29 0,1
20.01.2018 01:00:00 -0,4 -0,9 29 16 36 19 OZO 1003,4 3,7 0,0
20.01.2018 00:00:00 -0,1 -1,1 28 15 35 19 OZO 1003,4 18 0,0
19.01.2018 23:00:00 -0,1 -1,4 28 15 35 19 OZO 1003,5 34 0,0
19.01.2018 22:00:00 0,2 -1,2 27 14 34 18 OZO 1003,6 37 0,0
19.01.2018 21:00:00 0,1 -1,3 25 14 31 17 OZO 1003,3 50 0,0
19.01.2018 20:00:00 0,6 -0,9 24 13 31 17 ZO 1003,3 42 0,0
19.01.2018 19:00:00 0,5 -1,6 22 12 29 16 OZO 1003,0 50 0,0
19.01.2018 18:00:00 0,7 -2,5 23 13 29 16 ZO 1002,9 50 0,0
19.01.2018 17:00:00 0,6 -2,8 23 13 31 17 ZO 1003,1 50 0,0
19.01.2018 16:00:00 0,9 -2,7 24 13 33 18 ZO 1002,8 50 0,0
19.01.2018 15:00:00 1,0 -2,4 26 14 31 17 ZO 1002,3 50 0,0
19.01.2018 14:00:00 0,9 -3,0 24 13 29 16 ZO 1002,2 50 0,0
19.01.2018 13:00:00 0,6 -2,6 22 12 28 15 ZO 1002,1 50 0,0
19.01.2018 12:00:00 0,8 -2,1 20 11 24 13 ZO 1002,1 50 0,0
19.01.2018 11:00:00 0,5 -1,7 16 9 23 12 ZO 1001,8 50 0,0
19.01.2018 10:00:00 -0,1 -1,7 16 9 20 11 OZO 1001,4 50 0,0
19.01.2018 09:00:00 0,2 -1,2 14 8 18 10 OZO 1001,0 50 0,0
19.01.2018 08:00:00 0,1 -1,5 13 7 16 9 O 1000,3 50 0,0
19.01.2018 07:00:00 0,5 -1,3 11 6 15 8 OZO 999,6 50 0,0
19.01.2018 06:00:00 0,6 -1,3 12 6 17 9 OZO 999,2 50 0,0
19.01.2018 05:00:00 0,9 -1,5 13 7 16 9 ZO 998,7 50 0,0
19.01.2018 04:00:00 0,2 -0,9 10 6 17 9 O 998,3 50 0,0
19.01.2018 03:00:00 0,0 -1,0 11 6 15 8 ONO 997,9 50 0,0
19.01.2018 02:00:00 0,2 -1,2 6 3 9 5 ONO 997,4 50 0,0
19.01.2018 01:00:00 0,1 -1,2 5 3 11 6 ONO 996,9 50 0,0
19.01.2018 00:00:00 0,6 -1,0 8 4 13 7 O 996,7 50 0,0
18.01.2018 23:00:00 0,7 -0,9 9 5 13 7 OZO 996,3 50 0,0
18.01.2018 22:00:00 0,7 -1,1 13 7 15 8 OZO 995,6 50 0,0
18.01.2018 21:00:00 0,7 -0,8 12 7 18 10 OZO 995,1 50 0,0
18.01.2018 20:00:00 0,7 -0,9 11 6 19 11 O 994,4 50 0,0
18.01.2018 19:00:00 0,8 -0,8 12 7 19 10 ONO 993,6 50 0,0
18.01.2018 18:00:00 0,6 -0,4 13 7 20 11 ONO 992,7 10 0,1
18.01.2018 17:00:00 0,4 -0,2 16 8 24 13 ONO 992,2 7 0,1
18.01.2018 16:00:00 0,4 0,0 16 8 26 14 O 991,4 8 0,4
18.01.2018 15:00:00 0,9 0,2 21 11 29 16 O 990,8 29 0,0
18.01.2018 14:00:00 1,0 0,0 23 12 34 19 O 990,2 50 0,0
18.01.2018 13:00:00 1,1 -0,2 24 13 33 18 OZO 990,0 50 0,0
18.01.2018 12:00:00 1,2 0,5 25 14 32 18 OZO 989,9 46 0,0
18.01.2018 11:00:00 1,1 0,7 26 14 33 18 OZO 989,9 11 0,1
18.01.2018 10:00:00 1,2 0,3 24 13 32 18 OZO 990,1 37 0,0
18.01.2018 09:00:00 1,1 0,2 24 13 30 16 OZO 990,3 50 0,0
18.01.2018 08:00:00 1,3 0,4 18 10 27 14 OZO 990,5 18 0,0
18.01.2018 07:00:00 1,5 0,5 11 6 28 15 ZZO 991,1 22 0,0
18.01.2018 06:00:00 2,1 0,2 16 9 20 11 ZZO 991,4 50 0,0

tt = temperatuur
td = dauwpunt
ff = windsnelheid
fx = windstoten
dd = windrichting
ppp = luchtdruk
vv = zicht
rr = neerslag

Weerstations in de omgeving